SB KEPS @ AMSAT $ORB13290.O Orbital Elements 13290.OSCAR
HR AMSAT ORBITAL ELEMENTS FOR OSCAR SATELLITES FROM WA5QGD FORT WORTH,TX October 17, 2013 BID: ORB13290.O TO ALL RADIO AMATEURS BT
Satellite: AO-07 Catalog number: 07530 Epoch time: 13290.14633130 Element set: 801 Inclination: 101.4451 deg RA of node: 275.2790 deg Eccentricity: 0.0012269 Arg of perigee: 050.8503 deg Mean anomaly: 082.8299 deg Mean motion: 12.53599025 rev/day Decay rate: -5.3e-07 rev/day^2 Epoch rev: 78106 Checksum: 277
Satellite: FO-29 Catalog number: 24278 Epoch time: 13289.11805486 Element set: 222 Inclination: 098.5397 deg RA of node: 331.4264 deg Eccentricity: 0.0350294 Arg of perigee: 210.5757 deg Mean anomaly: 205.3702 deg Mean motion: 13.53007743 rev/day Decay rate: -3.6e-07 rev/day^2 Epoch rev: 84766 Checksum: 314
Satellite: SO-33 Catalog number: 25509 Epoch time: 13288.83434160 Element set: 605 Inclination: 031.4324 deg RA of node: 104.4883 deg Eccentricity: 0.0350759 Arg of perigee: 134.2689 deg Mean anomaly: 353.8148 deg Mean motion: 14.29160406 rev/day Decay rate: 1.267e-05 rev/day^2 Epoch rev: 78216 Checksum: 310
Satellite: RS-22 Catalog number: 27939 Epoch time: 13290.34188019 Element set: 862 Inclination: 097.7993 deg RA of node: 111.8386 deg Eccentricity: 0.0013487 Arg of perigee: 155.3191 deg Mean anomaly: 204.8689 deg Mean motion: 14.64607601 rev/day Decay rate: 1.025e-05 rev/day^2 Epoch rev: 53717 Checksum: 331
Satellite: VO-52 Catalog number: 28650 Epoch time: 13289.50535037 Element set: 553 Inclination: 097.5647 deg RA of node: 301.8842 deg Eccentricity: 0.0024583 Arg of perigee: 238.6839 deg Mean anomaly: 281.6813 deg Mean motion: 14.84203386 rev/day Decay rate: 1.612e-05 rev/day^2 Epoch rev: 45707 Checksum: 327
Satellite: HO-68 Catalog number: 36122 Epoch time: 13289.66096144 Element set: 981 Inclination: 100.2912 deg RA of node: 343.5625 deg Eccentricity: 0.0007789 Arg of perigee: 077.2684 deg Mean anomaly: 282.9297 deg Mean motion: 13.16307512 rev/day Decay rate: -4.4e-07 rev/day^2 Epoch rev: 18439 Checksum: 326
/EX SB KEPS @ AMSAT $ORB13290.D Orbital Elements 13290.MICROS
HR AMSAT ORBITAL ELEMENTS FOR THE MICROSATS FROM WA5QGD FORT WORTH,TX October 17, 2013 BID: ORB13290.D TO ALL RADIO AMATEURS BT
Satellite: UO-11 Catalog number: 14781 Epoch time: 13289.25026163 Element set: 312 Inclination: 097.8885 deg RA of node: 348.7443 deg Eccentricity: 0.0007695 Arg of perigee: 249.7904 deg Mean anomaly: 110.2481 deg Mean motion: 14.81043306 rev/day Decay rate: 6.86e-06 rev/day^2 Epoch rev: 59185 Checksum: 322
Satellite: AO-16 Catalog number: 20439 Epoch time: 13289.85576584 Element set: 864 Inclination: 098.4821 deg RA of node: 227.1103 deg Eccentricity: 0.0011602 Arg of perigee: 154.0221 deg Mean anomaly: 274.9232 deg Mean motion: 14.32214755 rev/day Decay rate: 1.74e-06 rev/day^2 Epoch rev: 23965 Checksum: 297
Satellite: LO-19 Catalog number: 20442 Epoch time: 13289.10773419 Element set: 801 Inclination: 098.4520 deg RA of node: 227.7825 deg Eccentricity: 0.0012671 Arg of perigee: 146.9745 deg Mean anomaly: 280.3355 deg Mean motion: 14.32422661 rev/day Decay rate: 1.44e-06 rev/day^2 Epoch rev: 23974 Checksum: 301
Satellite: AO-27 Catalog number: 22825 Epoch time: 13289.84879928 Element set: 503 Inclination: 098.6317 deg RA of node: 232.6517 deg Eccentricity: 0.0007284 Arg of perigee: 293.6211 deg Mean anomaly: 130.7832 deg Mean motion: 14.29598049 rev/day Decay rate: 1.41e-06 rev/day^2 Epoch rev: 4601 Checksum: 321
Satellite: IO-26 Catalog number: 22826 Epoch time: 13289.82197086 Element set: 258 Inclination: 098.6258 deg RA of node: 232.8879 deg Eccentricity: 0.0007800 Arg of perigee: 285.5989 deg Mean anomaly: 127.4831 deg Mean motion: 14.29885958 rev/day Decay rate: 1.57e-06 rev/day^2 Epoch rev: 4614 Checksum: 368
Satellite: GO-32 Catalog number: 25397 Epoch time: 13289.46896344 Element set: 183 Inclination: 098.4330 deg RA of node: 252.0485 deg Eccentricity: 0.0000491 Arg of perigee: 016.4894 deg Mean anomaly: 132.6023 deg Mean motion: 14.23364399 rev/day Decay rate: 7.5e-07 rev/day^2 Epoch rev: 79319 Checksum: 322
Satellite: NO-44 Catalog number: 26931 Epoch time: 13289.18121010 Element set: 443 Inclination: 067.0515 deg RA of node: 307.5928 deg Eccentricity: 0.0007401 Arg of perigee: 264.8912 deg Mean anomaly: 158.8018 deg Mean motion: 14.29968317 rev/day Decay rate: 9.1e-07 rev/day^2 Epoch rev: 62872 Checksum: 306
Satellite: SO-50 Catalog number: 27607 Epoch time: 13289.10955609 Element set: 197 Inclination: 064.5572 deg RA of node: 255.9671 deg Eccentricity: 0.0033421 Arg of perigee: 116.2412 deg Mean anomaly: 009.6740 deg Mean motion: 14.73111932 rev/day Decay rate: 9.41e-06 rev/day^2 Epoch rev: 58152 Checksum: 299
Satellite: CO-55 Catalog number: 27844 Epoch time: 13289.78145564 Element set: 765 Inclination: 098.7017 deg RA of node: 297.0943 deg Eccentricity: 0.0008722 Arg of perigee: 255.3708 deg Mean anomaly: 156.6225 deg Mean motion: 14.21284459 rev/day Decay rate: 2.93e-06 rev/day^2 Epoch rev: 53400 Checksum: 334
Satellite: CO-57 Catalog number: 27848 Epoch time: 13288.83386810 Element set: 707 Inclination: 098.7105 deg RA of node: 295.7376 deg Eccentricity: 0.0008574 Arg of perigee: 265.3224 deg Mean anomaly: 218.0576 deg Mean motion: 14.21001266 rev/day Decay rate: 2.46e-06 rev/day^2 Epoch rev: 53379 Checksum: 332
Satellite: AO-51 Catalog number: 28375 Epoch time: 13289.82036858 Element set: 680 Inclination: 098.2180 deg RA of node: 240.4892 deg Eccentricity: 0.0083359 Arg of perigee: 009.1003 deg Mean anomaly: 047.1163 deg Mean motion: 14.41175084 rev/day Decay rate: 3.43e-06 rev/day^2 Epoch rev: 48885 Checksum: 316
Satellite: CP3 Catalog number: 31129 Epoch time: 13289.66709073 Element set: 576 Inclination: 097.9093 deg RA of node: 275.5247 deg Eccentricity: 0.0100849 Arg of perigee: 049.9819 deg Mean anomaly: 001.6420 deg Mean motion: 14.53851190 rev/day Decay rate: 1.413e-05 rev/day^2 Epoch rev: 34464 Checksum: 317
Satellite: CO-65 Catalog number: 32785 Epoch time: 13289.75178087 Element set: 763 Inclination: 097.7363 deg RA of node: 343.7426 deg Eccentricity: 0.0012849 Arg of perigee: 266.8951 deg Mean anomaly: 213.9671 deg Mean motion: 14.84173992 rev/day Decay rate: 1.684e-05 rev/day^2 Epoch rev: 29590 Checksum: 373
Satellite: PRISM Catalog number: 33493 Epoch time: 13290.33480595 Element set: 275 Inclination: 098.2309 deg RA of node: 091.4600 deg Eccentricity: 0.0018536 Arg of perigee: 152.9103 deg Mean anomaly: 207.3108 deg Mean motion: 14.86651733 rev/day Decay rate: 4.116e-05 rev/day^2 Epoch rev: 25606 Checksum: 287
Satellite: SOHLA-1 Catalog number: 33496 Epoch time: 13289.82108736 Element set: 173 Inclination: 098.1480 deg RA of node: 045.6138 deg Eccentricity: 0.0005248 Arg of perigee: 298.2474 deg Mean anomaly: 187.6303 deg Mean motion: 14.70394887 rev/day Decay rate: 5.37e-06 rev/day^2 Epoch rev: 25374 Checksum: 332
Satellite: SO-67 Catalog number: 35870 Epoch time: 13290.33345385 Element set: 521 Inclination: 097.1847 deg RA of node: 314.7525 deg Eccentricity: 0.0000276 Arg of perigee: 133.3060 deg Mean anomaly: 357.4142 deg Mean motion: 15.28301266 rev/day Decay rate: 6.819e-05 rev/day^2 Epoch rev: 22690 Checksum: 299
Satellite: TISAT-1 Catalog number: 36799 Epoch time: 13290.33187935 Element set: 542 Inclination: 098.0294 deg RA of node: 015.7477 deg Eccentricity: 0.0015113 Arg of perigee: 036.0760 deg Mean anomaly: 324.1479 deg Mean motion: 14.83764551 rev/day Decay rate: 2.518e-05 rev/day^2 Epoch rev: 17668 Checksum: 323
Satellite: STUDSAT Catalog number: 36801 Epoch time: 13289.13568277 Element set: 695 Inclination: 098.0435 deg RA of node: 018.9021 deg Eccentricity: 0.0011055 Arg of perigee: 018.7009 deg Mean anomaly: 042.1741 deg Mean motion: 14.89783871 rev/day Decay rate: 1.1976e-04 rev/day^2 Epoch rev: 17671 Checksum: 315
Satellite: ALMASAT-1 Catalog number: 38078 Epoch time: 13290.32127579 Element set: 709 Inclination: 069.4759 deg RA of node: 276.3915 deg Eccentricity: 0.0674365 Arg of perigee: 349.7423 deg Mean anomaly: 009.0496 deg Mean motion: 14.30471515 rev/day Decay rate: 4.6127e-04 rev/day^2 Epoch rev: 8667 Checksum: 344
Satellite: XATCOBEO Catalog number: 38082 Epoch time: 13290.22804269 Element set: 589 Inclination: 069.4698 deg RA of node: 235.7052 deg Eccentricity: 0.0508171 Arg of perigee: 327.6242 deg Mean anomaly: 029.4175 deg Mean motion: 14.73294950 rev/day Decay rate: 1.43810e-03 rev/day^2 Epoch rev: 8778 Checksum: 330
Satellite: SOMP Catalog number: 39135 Epoch time: 13289.90092669 Element set: 349 Inclination: 064.8796 deg RA of node: 186.1480 deg Eccentricity: 0.0002553 Arg of perigee: 298.6362 deg Mean anomaly: 061.4499 deg Mean motion: 15.01084904 rev/day Decay rate: 5.328e-05 rev/day^2 Epoch rev: 2709 Checksum: 329
Satellite: CUBEBUG-1 Catalog number: 39153 Epoch time: 13290.31821387 Element set: 492 Inclination: 098.0652 deg RA of node: 006.0207 deg Eccentricity: 0.0019398 Arg of perigee: 053.9671 deg Mean anomaly: 306.3343 deg Mean motion: 14.76670405 rev/day Decay rate: 1.401e-05 rev/day^2 Epoch rev: 2570 Checksum: 282
Satellite: ESTCUBE-1 Catalog number: 39161 Epoch time: 13290.15155486 Element set: 463 Inclination: 098.1209 deg RA of node: 007.7243 deg Eccentricity: 0.0011503 Arg of perigee: 087.2334 deg Mean anomaly: 273.0203 deg Mean motion: 14.69160644 rev/day Decay rate: 1.129e-05 rev/day^2 Epoch rev: 2390 Checksum: 267
/EX SB KEPS @ AMSAT $ORB13290.W Orbital Elements 13290.WEATHER
HR AMSAT ORBITAL ELEMENTS FOR WEATHER SATELLITES FROM WA5QGD FORT WORTH,TX October 17, 2013 BID: ORB13290.W TO ALL RADIO AMATEURS BT
Satellite: NOAA-10 Catalog number: 16969 Epoch time: 13289.52485128 Element set: 534 Inclination: 098.5363 deg RA of node: 314.6692 deg Eccentricity: 0.0011327 Arg of perigee: 246.4655 deg Mean anomaly: 277.1382 deg Mean motion: 14.27670895 rev/day Decay rate: 8.8e-07 rev/day^2 Epoch rev: 40925 Checksum: 339
